Location: Hackbridge
(51.3833°N, 0.1500°W)
Time: 01:51:20
(UTC+00:00)

STARLINK-33 - Pass Details

Date: 13 October 2019
Orbit: 548 x 551 km, 53.0° (Epoch: 17 November)

Event Time Altitude Azimuth Distance (km) Brightness Sun altitude
Rises 19:10:22 0° 239° (WSW) 2,709 7.9 -19.1°
Reaches altitude 10° 19:12:36 10° 236° (WSW) 1,819 6.9 -19.5°
Maximum altitude 19:16:41 65° 155° (SSE) 609 3.6 -20.1°
Enters shadow 19:17:09 59° 118° (ESE) 639 3.5 -20.2°
